timestamp,wind_dir_avg,wind_spd_avg,wind_spd_max_dir,wind_spd_gust,battery_voltage,lat,long
2021-11-22 00:04:01+00:00,256.0,3.39,251.0,4.36,12.57,47.59359,-54.27349
2021-11-22 00:14:01+00:00,257.0,3.1,256.0,3.58,12.57,47.59359,-54.27349
2021-11-22 00:24:01+00:00,247.0,3.32,244.0,4.23,12.57,47.59359,-54.27349
2021-11-22 00:34:01+00:00,254.0,3.37,265.0,4.12,12.57,47.59359,-54.27349
2021-11-22 00:44:01+00:00,268.0,3.42,259.0,4.47,12.57,47.59359,-54.27349
2021-11-22 00:54:01+00:00,267.0,3.2,265.0,3.78,12.57,47.59359,-54.27349
2021-11-22 01:04:01+00:00,252.0,1.87,245.0,2.82,12.57,47.59359,-54.27349
2021-11-22 01:14:00+00:00,238.0,3.27,242.0,3.97,12.57,47.59359,-54.27349
2021-11-22 01:24:00+00:00,258.0,3.58,266.0,4.05,12.57,47.59359,-54.27349
2021-11-22 01:34:00+00:00,263.0,2.94,262.0,3.46,12.57,47.59359,-54.27349
2021-11-22 01:44:00+00:00,235.0,2.24,238.0,3.03,12.57,47.59359,-54.27349
2021-11-22 01:54:00+00:00,252.0,4.13,250.0,5.04,12.57,47.59359,-54.27349
2021-11-22 02:04:00+00:00,249.0,3.76,250.0,4.28,12.57,47.59359,-54.27349
2021-11-22 02:14:00+00:00,240.0,2.62,240.0,3.13,12.49,47.59359,-54.27349
2021-11-22 02:24:00+00:00,248.0,3.06,256.0,4.08,12.49,47.59359,-54.27349
2021-11-22 02:34:00+00:00,241.0,3.82,243.0,4.44,12.49,47.59359,-54.27349
2021-11-22 02:44:00+00:00,241.0,4.03,230.0,4.51,12.49,47.59359,-54.27349
2021-11-22 02:54:00+00:00,241.0,2.94,241.0,3.36,12.49,47.59359,-54.27349
2021-11-22 03:04:00+00:00,226.0,3.02,223.0,3.41,12.49,47.59359,-54.27349
2021-11-22 03:14:00+00:00,227.0,2.4,225.0,2.84,12.49,47.59359,-54.27349
2021-11-22 03:24:00+00:00,216.0,2.99,209.0,3.51,12.49,47.59359,-54.27349
2021-11-22 03:34:00+00:00,208.0,1.73,209.0,2.02,12.49,47.59359,-54.27349
2021-11-22 03:44:00+00:00,193.0,1.66,190.0,2.11,12.49,47.59359,-54.27349
2021-11-22 03:54:00+00:00,213.0,1.61,211.0,1.9,12.49,47.59359,-54.27349
2021-11-22 04:04:00+00:00,233.0,2.62,231.0,2.94,12.49,47.59359,-54.27349
2021-11-22 04:14:00+00:00,221.0,3.44,225.0,4.08,12.49,47.59359,-54.27349
2021-11-22 04:24:00+00:00,227.0,3.72,227.0,4.39,12.49,47.59359,-54.27349
2021-11-22 04:34:00+00:00,214.0,2.89,213.0,3.8,12.49,47.59359,-54.27349
2021-11-22 04:44:00+00:00,223.0,3.63,233.0,4.37,12.49,47.59359,-54.27349
2021-11-22 04:54:00+00:00,232.0,2.84,234.0,3.41,12.49,47.59359,-54.27349
2021-11-22 05:04:00+00:00,233.0,2.91,246.0,4.46,12.49,47.59359,-54.27349
2021-11-22 05:14:01+00:00,238.0,3.52,252.0,5.35,12.49,47.59359,-54.27349
2021-11-22 05:24:01+00:00,212.0,4.55,229.0,5.48,12.49,47.59359,-54.27349
2021-11-22 05:34:01+00:00,241.0,5.17,237.0,6.03,12.49,47.59359,-54.27349
2021-11-22 05:44:01+00:00,203.0,4.01,211.0,4.89,12.49,47.59359,-54.27349
2021-11-22 05:54:01+00:00,231.0,4.78,231.0,5.55,12.49,47.59359,-54.27349
2021-11-22 06:04:01+00:00,229.0,4.41,240.0,6.4,12.49,47.59359,-54.27349
2021-11-22 06:14:00+00:00,228.0,4.0,243.0,6.2,12.41,47.59359,-54.27349
2021-11-22 06:24:00+00:00,229.0,4.63,226.0,5.97,12.41,47.59359,-54.27349
2021-11-22 06:34:00+00:00,231.0,4.33,249.0,6.63,12.41,47.59359,-54.27349
2021-11-22 06:44:00+00:00,213.0,4.56,240.0,7.13,12.41,47.59359,-54.27349
2021-11-22 06:54:00+00:00,224.0,3.53,246.0,6.75,12.41,47.59359,-54.27349
2021-11-22 07:04:00+00:00,234.0,4.79,246.0,6.7,12.41,47.59359,-54.27349
2021-11-22 07:14:00+00:00,227.0,5.68,239.0,7.36,12.41,47.59359,-54.27349
2021-11-22 07:24:00+00:00,224.0,6.21,231.0,7.76,12.41,47.59359,-54.27349
2021-11-22 07:34:00+00:00,244.0,5.18,243.0,5.81,12.41,47.59359,-54.27349
2021-11-22 07:44:00+00:00,240.0,4.67,250.0,6.7,12.41,47.59359,-54.27349
2021-11-22 07:54:00+00:00,235.0,5.72,232.0,6.38,12.41,47.59359,-54.27349
2021-11-22 08:04:00+00:00,232.0,5.35,230.0,5.9,12.41,47.59359,-54.27349
2021-11-22 08:14:00+00:00,239.0,5.28,243.0,5.72,12.41,47.59359,-54.27349
2021-11-22 08:24:00+00:00,244.0,5.07,243.0,5.64,12.41,47.59359,-54.27349
2021-11-22 08:34:00+00:00,246.0,4.35,254.0,6.74,12.41,47.59359,-54.27349
2021-11-22 08:44:00+00:00,227.0,5.01,231.0,6.47,12.41,47.59359,-54.27349
2021-11-22 08:54:00+00:00,247.0,4.59,245.0,5.22,12.41,47.59359,-54.27349
2021-11-22 09:04:00+00:00,243.0,4.45,247.0,5.3,12.41,47.59359,-54.27349
2021-11-22 09:14:00+00:00,233.0,4.95,229.0,5.63,12.41,47.59359,-54.27349
2021-11-22 09:24:00+00:00,235.0,4.28,235.0,4.96,12.41,47.59359,-54.27349
2021-11-22 09:34:00+00:00,242.0,5.18,252.0,6.95,12.41,47.59359,-54.27349
2021-11-22 09:44:00+00:00,219.0,5.73,219.0,6.3,12.41,47.59359,-54.27349
2021-11-22 09:54:00+00:00,229.0,5.56,228.0,6.51,12.41,47.59359,-54.27349
2021-11-22 10:04:00+00:00,234.0,5.02,240.0,7.1,12.41,47.59359,-54.27349
2021-11-22 10:14:01+00:00,228.0,5.27,237.0,7.11,12.41,47.59359,-54.27349
2021-11-22 10:24:01+00:00,228.0,5.71,231.0,6.31,12.41,47.59359,-54.27349
2021-11-22 10:34:01+00:00,221.0,5.7,240.0,7.43,12.41,47.59359,-54.27349
2021-11-22 10:44:01+00:00,223.0,6.55,230.0,8.05,12.41,47.59359,-54.27349
2021-11-22 10:54:01+00:00,219.0,5.85,214.0,6.82,12.41,47.59359,-54.27349
2021-11-22 11:04:01+00:00,223.0,5.89,222.0,6.94,12.41,47.59359,-54.27349
2021-11-22 11:14:00+00:00,224.0,7.57,225.0,8.22,12.41,47.59359,-54.27349
2021-11-22 11:24:00+00:00,227.0,6.39,238.0,7.66,12.41,47.59359,-54.27349
2021-11-22 11:34:00+00:00,222.0,6.19,230.0,7.83,12.41,47.59359,-54.27349
2021-11-22 11:44:00+00:00,220.0,5.52,214.0,6.47,12.41,47.59359,-54.27349
2021-11-22 11:54:00+00:00,208.0,7.29,214.0,8.61,12.41,47.59359,-54.27349
2021-11-22 12:04:00+00:00,212.0,7.3,219.0,8.39,12.41,47.59359,-54.27349
2021-11-22 12:14:01+00:00,224.0,7.8,225.0,8.54,13.44,47.59359,-54.27349
2021-11-22 12:24:01+00:00,212.0,6.33,222.0,7.8,13.44,47.59359,-54.27349
2021-11-22 12:34:01+00:00,236.0,5.7,243.0,7.46,13.44,47.59359,-54.27349
2021-11-22 12:44:01+00:00,229.0,5.97,238.0,7.7,13.44,47.59359,-54.27349
2021-11-22 12:54:01+00:00,230.0,5.26,240.0,7.48,13.44,47.59359,-54.27349
2021-11-22 13:04:01+00:00,233.0,5.9,238.0,7.32,13.44,47.59359,-54.27349
2021-11-22 13:14:00+00:00,239.0,4.87,256.0,6.81,13.76,47.59359,-54.27349
2021-11-22 13:24:00+00:00,247.0,5.22,240.0,5.82,13.76,47.59359,-54.27349
2021-11-22 13:34:00+00:00,237.0,5.02,244.0,5.83,13.76,47.59359,-54.27349
2021-11-22 13:44:00+00:00,238.0,4.31,238.0,5.16,13.76,47.59359,-54.27349
2021-11-22 13:54:00+00:00,238.0,4.14,249.0,5.36,13.76,47.59359,-54.27349
2021-11-22 14:04:00+00:00,226.0,5.44,216.0,7.1,13.76,47.59359,-54.27349
2021-11-22 14:14:01+00:00,218.0,6.01,223.0,7.33,13.76,47.59359,-54.27349
2021-11-22 14:24:01+00:00,216.0,5.63,214.0,6.59,13.76,47.59359,-54.27349
2021-11-22 14:34:01+00:00,213.0,5.73,208.0,6.37,13.76,47.59359,-54.27349
2021-11-22 14:44:01+00:00,216.0,5.59,225.0,6.92,13.76,47.59359,-54.27349
2021-11-22 14:54:01+00:00,217.0,5.66,233.0,7.02,13.76,47.59359,-54.27349
2021-11-22 15:04:01+00:00,213.0,6.11,208.0,7.18,13.76,47.59359,-54.27349
2021-11-22 15:14:00+00:00,214.0,5.96,214.0,7.18,13.6,47.59359,-54.27349
2021-11-22 15:24:00+00:00,219.0,6.1,226.0,7.26,13.6,47.59359,-54.27349
2021-11-22 15:34:00+00:00,214.0,6.22,209.0,7.11,13.6,47.59359,-54.27349
2021-11-22 15:44:00+00:00,212.0,7.25,214.0,8.01,13.6,47.59359,-54.27349
2021-11-22 15:54:00+00:00,213.0,7.43,214.0,8.46,13.6,47.59359,-54.27349
2021-11-22 16:04:00+00:00,213.0,6.45,207.0,7.48,13.6,47.59359,-54.27349
2021-11-22 16:14:00+00:00,214.0,7.28,213.0,8.01,13.68,47.59359,-54.27349
2021-11-22 16:24:00+00:00,215.0,7.18,216.0,7.91,13.68,47.59359,-54.27349
2021-11-22 16:34:00+00:00,208.0,7.94,207.0,8.9,13.68,47.59359,-54.27349
2021-11-22 16:44:00+00:00,211.0,6.81,215.0,7.93,13.68,47.59359,-54.27349
2021-11-22 16:54:00+00:00,213.0,7.02,218.0,7.92,13.68,47.59359,-54.27349
2021-11-22 17:04:00+00:00,212.0,7.02,216.0,7.65,13.68,47.59359,-54.27349
2021-11-22 17:14:01+00:00,217.0,6.5,218.0,7.76,13.53,47.59359,-54.27349
2021-11-22 17:24:01+00:00,212.0,7.42,213.0,8.06,13.53,47.59359,-54.27349
2021-11-22 17:34:01+00:00,208.0,7.82,203.0,8.64,13.53,47.59359,-54.27349
2021-11-22 17:44:01+00:00,208.0,7.51,214.0,8.72,13.53,47.59359,-54.27349
2021-11-22 17:54:01+00:00,211.0,7.11,218.0,7.89,13.53,47.59359,-54.27349
2021-11-22 18:04:01+00:00,207.0,7.79,216.0,8.83,13.53,47.59359,-54.27349
2021-11-22 18:14:01+00:00,215.0,7.32,217.0,7.95,14.08,47.59359,-54.27349
2021-11-22 18:24:01+00:00,213.0,7.29,222.0,8.46,14.08,47.59359,-54.27349
2021-11-22 18:34:01+00:00,218.0,7.96,221.0,8.5,14.08,47.59359,-54.27349
2021-11-22 18:44:01+00:00,190.0,6.73,208.0,8.31,14.08,47.59359,-54.27349
2021-11-22 18:54:01+00:00,214.0,8.72,212.0,9.44,14.08,47.59359,-54.27349
2021-11-22 19:04:01+00:00,195.0,6.45,219.0,7.98,14.08,47.59359,-54.27349
2021-11-22 19:14:01+00:00,188.0,5.88,221.0,7.27,13.6,47.59359,-54.27349
2021-11-22 19:24:01+00:00,179.0,5.86,164.0,6.72,13.6,47.59359,-54.27349
2021-11-22 19:34:01+00:00,185.0,5.54,207.0,7.01,13.6,47.59359,-54.27349
2021-11-22 19:44:01+00:00,178.0,5.63,181.0,6.15,13.6,47.59359,-54.27349
2021-11-22 19:54:01+00:00,207.0,6.4,222.0,7.75,13.6,47.59359,-54.27349
2021-11-22 20:04:01+00:00,185.0,5.26,194.0,5.79,13.6,47.59359,-54.27349
2021-11-22 20:14:00+00:00,185.0,6.09,207.0,7.59,12.89,47.59359,-54.27349
2021-11-22 20:24:00+00:00,182.0,6.63,182.0,7.12,12.89,47.59359,-54.27349
2021-11-22 20:34:00+00:00,183.0,5.74,218.0,7.8,12.89,47.59359,-54.27349
2021-11-22 20:44:00+00:00,183.0,6.42,183.0,6.94,12.89,47.59359,-54.27349
2021-11-22 20:54:00+00:00,183.0,6.17,206.0,7.07,12.89,47.59359,-54.27349
2021-11-22 21:04:00+00:00,163.0,6.54,143.0,8.06,12.89,47.59359,-54.27349
2021-11-22 21:14:01+00:00,172.0,5.56,142.0,7.42,12.65,47.59359,-54.27349
2021-11-22 21:24:01+00:00,187.0,7.27,206.0,8.36,12.65,47.59359,-54.27349
2021-11-22 21:34:01+00:00,178.0,7.59,160.0,8.83,12.65,47.59359,-54.27349
2021-11-22 21:44:01+00:00,188.0,7.7,211.0,9.46,12.65,47.59359,-54.27349
2021-11-22 21:54:01+00:00,201.0,8.17,214.0,9.77,12.65,47.59359,-54.27349
2021-11-22 22:04:01+00:00,170.0,8.45,150.0,9.99,12.65,47.59359,-54.27349
2021-11-22 22:14:01+00:00,174.0,6.88,147.0,8.67,12.65,47.59359,-54.27349
2021-11-22 22:24:01+00:00,177.0,7.35,148.0,8.63,12.65,47.59359,-54.27349
2021-11-22 22:34:01+00:00,180.0,6.67,157.0,7.96,12.65,47.59359,-54.27349
2021-11-22 22:44:01+00:00,157.0,6.45,140.0,8.15,12.65,47.59359,-54.27349
2021-11-22 22:54:01+00:00,175.0,7.03,177.0,7.8,12.65,47.59359,-54.27349
2021-11-22 23:04:01+00:00,170.0,7.19,146.0,8.87,12.65,47.59359,-54.27349
2021-11-22 23:14:01+00:00,166.0,7.63,148.0,9.85,12.57,47.59359,-54.27349
2021-11-22 23:24:01+00:00,178.0,7.0,210.0,9.18,12.57,47.59359,-54.27349
2021-11-22 23:34:01+00:00,163.0,8.41,152.0,10.42,12.57,47.59359,-54.27349
2021-11-22 23:44:01+00:00,180.0,7.88,180.0,9.0,12.57,47.59359,-54.27349
2021-11-22 23:54:01+00:00,184.0,8.18,214.0,9.43,12.57,47.59359,-54.27349
